User: anonymous   Login
Location: Radford
(37.1320°N, 80.5770°W)
Time: 07:11:41
(UTC-04:00)
Language:

Okean 1-7 - Orbit

View from above orbital plane
View from above orbital plane
View from above satellite
View from above satellite

Ground track
Ground track

The orbit data is extracted from the following two-line orbital elements,

1 23317U 94066A   16179.17964361  .00000263  00000-0  26387-4 0  9993
2 23317  82.5388  92.1091 0020328 158.5798 201.6275 14.87196181173170
Epoch (UTC): 27 June 2016 04:18:41
Eccentricity: 0.0020328
inclination: 82.5388°
perigee height: 592 km
apogee height: 621 km
right ascension of ascending node: 92.1091°
argument of perigee: 158.5798°
revolutions per day: 14.87196181
mean anomaly at epoch: 201.6275°
orbit number at epoch: 17317

The dashed part of the orbit path shows where the satellite is in the earth's shadow,  

DLR